Tracking 30417 objects as of 16-May-2025
HD Live streaming from Space Station
objects crossing your sky now

THORAD AGENA D DEB

Track THORAD AGENA D DEB now!
10-day predictions


NORAD ID: 6216
Int'l Code: 1970-025NE
Perigee: 613.2 km
Apogee: 927.0 km
Inclination: 99.0 °
Period: 100.1 minutes
Semi major axis: 7141 km
RCS: 0.0784 m2 (small)
Launch date: April 8, 1970
Source: United States (US)
Launch site: AIR FORCE WESTERN TEST RANGE (AFWTR)

Note: This is SATELLITE DEBRIS
Your satellite tracking list
Your tracking list is empty




NASA's NSSDC Master Catalog

Two Line Element Set (TLE):
1  6216U 70025NE  25136.11675899  .00001251  00000-0  32231-3 0  9995
2  6216  99.0423  11.7810 0219697 163.6846 197.1561 14.38648222839224
Source of the keplerian elements: AFSPC